Temperature
13 13 13 13 13 13 13 13 13 12 12 12 12 12 12 12 12 12 11 11 11 11 11 11 11 11 11 11 11 11 11 10 10 10 10 10 11 10
13 13 13 13 13 13 13 13 13 13 12 12 12 12 12 12 11 11 11 11 11 11 11 11 11 11 11 11 11 10 10 10 10 10 10 10 10 10
13 13 13 13 13 13 13 13 12 12 12 12 12 12 12 11 11 11 11 11 11 11 10 10 10 10 10 10 10 10 10 10 10 10 10 10 10 10
13 13 13 13 12 12 12 12 12 12 12 12 12 11 11 11 11 11 11 11 10 10 10 10 10 10 10 10 10 10 10 10 10 9 9 9 9 9
12 12 12 12 12 12 12 12 12 12 12 12 11 11 11 11 10 10 10 10 10 10 10 10 10 10 10 10 10 10 10 10 9 9 9 9 9 9
12 12 12 12 12 12 12 12 12 11 11 11 11 11 11 10 10 10 10 10 10 10 10 10 10 10 10 9 9 9 9 9 9 9 9 9 9 9
12 11 11 11 11 11 11 11 11 11 11 11 11 10 10 10 10 10 10 10 10 9 9 9 9 9 9 9 9 9 9 9 9 9 9 9 9 9
11 11 11 11 11 11 11 11 11 11 11 10 10 10 10 10 10 10 9 9 9 9 9 9 9 9 9 9 9 9 9 9 9 9 8 8 8 8
11 11 11 10 11 11 11 11 11 10 10 10 10 10 10 10 10 9 9 9 9 9 9 9 9 9 9 9 9 9 9 8 8 8 8 8 8 8
10 10 10 10 10 10 10 10 10 10 10 10 10 10 10 10 9 9 9 9 9 9 8 8 8 8 8 8 8 8 8 8 8 8 8 8 8 8
10 10 10 10 10 10 10 10 10 10 10 10 10 10 9 9 9 9 9 8 8 8 8 8 8 8 8 8 8 8 8 8 8 8 8 8 8 8
9 9 9 9 9 9 9 9 9 9 9 9 9 9 9 9 9 9 9 8 8 8 8 7 7 7 7 8 8 8 8 8 8 7 7 7 7 7
8 8 9 9 9 9 9 9 9 9 9 9 9 9 9 8 8 8 8 8 8 8 8 7 7 7 7 7 7 7 7 7 7 7 7 7 7 7
8 8 8 8 8 8 8 8 8 8 8 8 8 8 8 8 8 8 8 8 8 8 7 7 7 7 7 7 7 7 7 7 7 7 7 7 7 7
7 7 7 8 8 8 8 8 8 8 8 8 7 7 7 7 7 7 7 7 7 7 7 7 7 7 6 6 6 6 6 6 6 6 7 6 6 6
7 7 7 7 7 7 7 7 7 7 7 7 7 7 7 7 7 7 7 7 7 7 6 6 6 6 6 6 6 6 6 6 6 6 6 6 6 6
6 6 6 6 6 6 6 6 6 6 7 7 7 7 6 6 6 6 6 6 6 6 6 6 6 6 6 6 6 6 6 5 5 5 5 5 6 6
5 5 5 5 5 5 5 6 6 6 6 6 6 6 6 6 6 5 5 6 6 6 6 5 5 5 5 5 5 5 5 5 5 5 5 5 5 5
5 5 5 5 5 5 5 5 5 5 5 5 5 5 5 5 5 5 5 5 5 5 5 5 5 5 5 5 5 5 5 5 5 5 5 5 5 5
4 4 4 4 4 4 4 4 5 5 5 5 5 5 5 5 5 5 5 5 5 5 5 5 5 5 4 5 4 5 5 4 4 4 4 4 4 4
3 3 4 4 4 4 4 4 4 4 4 4 4 5 5 5 5 4 4 4 4 4 4 4 4 4 4 4 4 4 4 4 4 4 4 4 4 4
3 3 3 3 3 3 3 3 3 3 4 4 4 4 4 4 4 4 4 4 4 4 4 4 4 4 4 4 4 4 4 4 4 4 3 3 3 3
2 2 2 2 3 3 3 3 3 3 3 3 3 3 3 4 4 4 4 3 3 3 3 3 3 3 3 3 3 3 3 3 3 3 3 3 3 3
Wind_Speed
1 1 1 1 1 0 1 2 2 1 1 1 0 1 3 4 5 5 5 5 3 2 2 2 3 3 3 3 2 3 3 4 4 4 5 5 5 4
1 1 1 1 0 0 1 1 1 2 2 1 0 1 2 2 3 5 5 5 4 2 2 1 1 2 2 2 2 2 3 3 3 4 4 5 5 4
1 1 1 1 0 0 0 0 0 1 2 1 1 1 1 1 2 4 5 5 4 3 3 2 1 0 1 1 1 2 2 2 3 3 3 4 4 4
1 1 1 1 0 0 0 1 0 1 2 2 1 1 1 2 2 3 3 3 4 3 4 3 2 1 1 0 0 1 2 2 3 3 3 4 5 5
1 1 2 1 1 0 1 1 1 0 0 1 1 1 1 1 1 1 2 2 3 3 4 3 2 2 2 2 1 0 0 1 2 2 3 4 4 5
1 1 1 1 1 1 1 1 0 0 0 1 1 1 1 1 1 2 1 1 1 2 2 2 3 3 3 3 2 2 1 1 1 2 2 3 4 4
1 1 1 0 0 0 0 1 1 1 1 1 1 1 1 1 1 1 1 1 1 1 1 2 2 2 2 3 3 2 2 2 2 2 2 2 3 4
2 2 2 1 1 1 1 1 2 2 2 2 2 3 2 2 1 1 1 1 1 1 1 2 2 1 2 3 3 4 3 3 3 3 2 2 3 3
2 2 2 2 2 1 2 2 2 3 4 4 3 4 3 3 2 2 2 1 2 2 1 1 1 1 2 3 4 5 4 4 3 3 3 3 4 4
3 2 1 0 1 1 2 1 1 2 3 3 4 4 3 3 4 3 3 1 0 1 1 1 2 2 2 3 4 4 5 5 4 4 4 5 5 5
2 1 0 0 2 2 1 1 1 2 2 1 1 2 3 3 3 2 2 2 1 2 1 1 2 2 2 3 4 6 6 6 6 6 6 5 5 6
2 1 1 2 3 2 1 1 1 2 1 1 1 1 0 2 3 4 4 3 1 2 2 1 1 1 1 2 2 3 4 5 6 6 6 6 5 3
2 2 2 2 3 3 2 2 3 2 1 1 1 0 0 0 0 1 2 3 3 2 2 1 1 1 1 2 2 2 3 3 3 4 5 6 5 3
2 2 2 3 3 4 3 4 3 2 1 1 1 1 1 1 0 0 1 1 2 3 3 2 1 2 2 2 2 2 1 2 3 2 2 4 4 5
2 3 4 5 3 2 3 3 2 0 1 1 2 2 2 2 0 1 1 1 1 0 2 2 1 2 2 2 2 1 1 2 2 2 2 2 2 2
3 3 3 3 2 3 3 2 1 1 1 2 1 1 0 1 1 1 1 0 1 2 1 1 1 2 2 2 2 2 2 2 2 2 2 2 2 2
3 2 1 1 1 2 2 1 1 1 1 1 1 1 1 1 1 1 1 1 1 2 2 2 1 0 1 2 2 3 3 2 3 2 2 2 2 2
3 2 2 2 2 2 2 2 1 2 1 1 1 2 2 2 1 1 1 1 2 2 2 2 1 1 2 3 3 4 3 3 2 2 2 2 3 3
1 2 2 2 2 2 1 2 2 2 1 1 1 1 2 2 2 2 2 2 2 2 2 2 2 2 2 4 3 3 3 3 2 2 2 3 4 3
1 1 2 2 2 2 2 2 2 1 1 1 1 1 1 2 2 2 3 3 3 3 3 2 3 3 4 4 3 3 4 3 2 3 3 2 2 3
2 2 2 2 2 2 2 2 1 2 2 2 1 1 1 1 2 2 3 4 3 3 4 4 4 4 2 1 1 2 3 4 3 3 2 2 2 3
2 2 2 2 2 2 2 2 2 2 2 2 2 2 2 2 2 3 3 3 3 3 3 3 2 2 1 2 3 3 3 3 3 4 4 4 3 3
2 2 2 2 2 2 2 2 2 2 2 2 2 2 2 2 2 2 2 3 2 2 2 2 2 2 2 3 3 3 3 3 2 2 4 5 6 7
Wind_Direction
204 227 242 239 244 225 176 159 156 205 275 240 62 124 118 130 150 157 152 146 141 126 95 51 31 24 23 25 32 25 19 17 15 15 10 6 6 6
198 229 268 274 263 195 202 214 163 177 222 231 217 169 137 140 157 151 155 153 150 155 161 103 33 27 26 21 16 10 12 17 17 14 8 8 8 4
256 223 243 218 271 189 245 262 229 173 205 254 223 166 134 150 139 162 165 164 167 176 183 188 220 24 29 18 16 26 25 18 11 4 11 9 7 5
277 261 269 243 58 358 245 243 228 224 179 222 246 219 207 192 180 183 165 174 167 183 191 195 209 212 209 251 30 45 31 26 14 5 7 6 4 2
302 290 281 224 199 247 257 237 229 243 172 192 232 223 234 218 185 180 151 151 169 188 193 204 215 228 227 230 223 215 342 2 11 12 6 2 358 355
320 317 326 310 247 219 221 247 241 186 198 184 214 228 234 220 156 169 176 200 205 175 177 211 225 230 236 238 234 223 215 241 321 340 349 357 356 354
310 290 275 301 321 257 189 219 216 218 206 195 207 240 204 161 195 185 183 209 253 192 174 200 187 196 238 249 239 231 225 238 260 282 303 328 342 344
285 285 273 256 279 303 235 226 209 211 220 215 212 209 214 211 204 188 176 173 265 242 172 234 185 202 214 216 214 213 224 239 263 274 274 299 321 326
278 274 294 317 2 313 276 265 267 246 229 217 218 218 207 204 187 194 210 217 233 224 165 250 229 226 235 246 211 207 217 229 249 253 258 272 288 298
286 270 254 280 318 356 294 270 275 283 261 233 214 222 210 190 189 194 202 197 235 241 150 214 244 238 240 230 228 220 220 226 237 249 262 274 279 285
308 322 303 267 358 27 336 267 274 304 317 324 201 220 218 207 184 146 143 148 257 266 237 179 225 250 248 238 237 232 226 232 244 251 259 270 279 283
310 320 8 349 348 11 310 255 244 280 309 332 349 338 253 200 190 172 174 180 198 239 232 170 215 202 263 256 230 228 232 245 250 249 258 270 276 276
317 323 323 339 333 324 313 256 261 266 238 199 180 166 38 79 169 170 173 180 194 230 220 172 218 241 225 256 268 235 214 225 236 254 265 268 269 254
303 313 305 317 321 312 295 297 307 330 222 185 167 186 186 210 246 247 215 211 205 203 191 166 190 216 235 263 263 265 250 219 201 228 250 276 273 266
299 312 320 313 307 300 291 304 321 333 229 204 197 212 212 197 150 37 12 27 25 165 182 184 187 210 210 232 251 255 274 277 228 219 223 240 248 257
323 329 338 339 327 320 323 304 278 264 234 227 216 205 149 133 156 169 185 150 357 320 322 232 187 196 230 243 238 251 247 249 266 252 229 243 257 238
315 313 306 323 321 320 318 306 303 297 278 263 203 188 197 207 210 171 179 197 217 243 279 312 339 331 227 236 248 243 238 251 253 240 226 243 257 257
321 303 299 296 282 281 283 291 301 292 269 237 215 200 197 204 212 226 224 203 221 240 240 229 238 314 321 304 246 244 247 245 249 248 232 235 264 265
296 281 288 289 288 290 286 285 280 286 284 264 238 217 198 201 197 216 230 239 248 254 247 222 204 215 256 279 279 245 238 252 254 250 245 241 252 252
298 287 295 296 297 299 290 282 289 311 323 315 293 268 238 221 219 223 229 238 245 254 259 247 227 225 232 246 256 270 248 239 239 252 264 269 277 282
309 300 298 295 299 293 290 299 301 297 302 301 292 285 270 249 245 246 245 242 239 244 247 251 250 252 253 244 268 278 283 272 251 240 243 253 285 292
314 308 301 297 296 293 298 308 311 297 286 277 278 276 272 264 253 249 250 248 248 249 256 258 249 253 251 245 255 267 280 296 303 295 282 254 234 235
315 316 316 312 301 303 309 307 306 299 282 273 272 272 275 275 273 267 261 258 256 258 265 272 272 259 247 239 246 258 264 272 281 300 300 293 269 259
Height
1528 1528 1529 1529 1529 1529 1529 1529 1530 1529 1529 1529 1529 1528 1527 1526 1526 1525 1525 1524 1524 1523 1522 1521 1521 1520 1519 1519 1518 1518 1518 1517 1517 1517 1517 1516 1516 1515
1526 1527 1527 1527 1527 1527 1527 1527 1527 1527 1527 1527 1527 1526 1526 1525 1524 1524 1523 1523 1523 1522 1521 1521 1520 1519 1519 1518 1517 1517 1516 1516 1516 1516 1515 1515 1514 1514
1524 1525 1525 1525 1525 1525 1525 1525 1525 1525 1524 1524 1525 1524 1524 1523 1523 1522 1522 1522 1521 1521 1521 1520 1519 1518 1518 1517 1517 1516 1516 1515 1515 1515 1514 1513 1513 1512
1522 1522 1522 1523 1523 1523 1522 1522 1522 1522 1522 1522 1522 1522 1521 1521 1521 1521 1520 1520 1520 1520 1519 1519 1518 1518 1517 1516 1516 1515 1515 1514 1514 1513 1513 1512 1511 1511
1519 1520 1520 1520 1519 1520 1520 1520 1520 1520 1520 1519 1519 1519 1519 1519 1519 1519 1519 1518 1518 1518 1518 1518 1517 1517 1516 1515 1515 1514 1513 1513 1512 1512 1511 1510 1510 1509
1516 1517 1517 1517 1516 1517 1517 1517 1517 1517 1517 1516 1516 1516 1516 1516 1517 1516 1516 1516 1516 1516 1516 1516 1516 1515 1514 1514 1513 1513 1512 1512 1511 1510 1510 1509 1508 1508
1514 1514 1514 1514 1514 1514 1514 1513 1513 1513 1513 1513 1513 1513 1513 1514 1514 1514 1514 1514 1514 1514 1514 1514 1514 1513 1513 1512 1512 1511 1511 1510 1509 1509 1508 1507 1506 1506
1510 1511 1511 1511 1511 1511 1511 1511 1511 1510 1510 1510 1510 1510 1510 1511 1511 1511 1511 1511 1511 1512 1512 1512 1512 1511 1511 1510 1510 1510 1509 1508 1507 1507 1506 1505 1505 1504
1507 1507 1507 1507 1507 1507 1507 1508 1507 1507 1507 1507 1507 1507 1507 1507 1508 1508 1508 1508 1509 1509 1510 1509 1509 1508 1509 1508 1508 1508 1507 1506 1506 1505 1504 1503 1503 1502
1504 1504 1504 1503 1504 1504 1503 1503 1503 1503 1503 1503 1503 1504 1505 1505 1505 1506 1506 1506 1506 1507 1507 1506 1506 1506 1506 1506 1505 1505 1505 1504 1503 1503 1502 1501 1500 1500
1501 1500 1500 1500 1500 1500 1500 1499 1499 1499 1499 1500 1500 1501 1501 1502 1502 1502 1503 1503 1503 1503 1504 1504 1503 1503 1503 1502 1502 1502 1502 1502 1501 1500 1499 1499 1498 1497
1497 1497 1497 1497 1497 1497 1496 1496 1495 1495 1495 1496 1496 1496 1497 1498 1499 1499 1499 1500 1499 1500 1500 1501 1500 1500 1499 1499 1499 1499 1499 1498 1498 1497 1497 1496 1495 1494
1493 1493 1493 1493 1493 1493 1493 1492 1492 1492 1492 1492 1492 1493 1493 1494 1495 1495 1496 1496 1497 1497 1498 1497 1497 1497 1497 1496 1496 1496 1496 1495 1495 1494 1493 1493 1492 1491
1490 1490 1490 1490 1490 1489 1489 1489 1489 1489 1488 1488 1488 1489 1489 1490 1491 1492 1492 1493 1493 1494 1494 1494 1494 1494 1493 1492 1492 1492 1492 1492 1491 1491 1490 1490 1489 1488
1487 1487 1487 1486 1486 1486 1486 1485 1485 1485 1485 1484 1485 1485 1486 1487 1487 1488 1488 1489 1489 1490 1490 1491 1490 1490 1490 1490 1489 1489 1489 1488 1488 1487 1487 1486 1485 1485
1484 1484 1483 1483 1483 1482 1482 1481 1481 1481 1481 1481 1481 1482 1483 1483 1483 1484 1484 1485 1485 1485 1486 1487 1487 1487 1486 1486 1486 1485 1485 1485 1484 1484 1483 1483 1482 1481
1481 1480 1480 1479 1479 1478 1478 1478 1478 1477 1477 1478 1478 1478 1479 1480 1480 1480 1481 1481 1481 1481 1482 1483 1483 1483 1483 1483 1482 1481 1481 1481 1481 1480 1479 1478 1478 1478
1478 1477 1476 1476 1476 1476 1475 1475 1475 1474 1474 1474 1474 1475 1475 1476 1476 1477 1478 1477 1477 1478 1478 1479 1479 1479 1478 1478 1479 1478 1478 1477 1477 1477 1476 1474 1473 1473
1475 1474 1473 1473 1473 1473 1473 1472 1472 1472 1472 1471 1471 1471 1472 1472 1473 1473 1474 1474 1474 1474 1474 1475 1475 1474 1474 1473 1473 1475 1474 1473 1473 1472 1472 1471 1470 1469
1471 1471 1471 1471 1470 1470 1469 1469 1469 1468 1468 1468 1468 1468 1469 1469 1469 1469 1470 1470 1470 1470 1470 1471 1471 1470 1470 1470 1469 1469 1470 1469 1469 1468 1467 1467 1466 1466
1469 1468 1468 1468 1467 1467 1466 1466 1466 1466 1465 1465 1465 1465 1465 1465 1465 1465 1466 1466 1466 1466 1466 1466 1467 1467 1467 1466 1465 1464 1465 1465 1465 1464 1463 1463 1461 1460
1466 1465 1465 1465 1464 1464 1463 1463 1462 1462 1462 1462 1462 1462 1461 1461 1461 1461 1461 1461 1462 1462 1462 1462 1463 1463 1462 1462 1461 1460 1460 1460 1460 1460 1460 1459 1458 1456
1463 1462 1462 1461 1461 1461 1460 1459 1459 1458 1458 1458 1458 1458 1458 1457 1457 1457 1457 1457 1457 1457 1457 1457 1457 1458 1457 1457 1457 1456 1456 1455 1455 1454 1454 1454 1454 1453